K8DJB-1 Weather Reports


time (UTC)temp
C
wind
direction
speed
KPH
gust
KPH
rain 1hr
cm
rain 24hr
cm
rain mn
cm
humidity
%
barometer
mb
20260503180339 15 229 32.2 51.5 0.00 0.00 0.00 52 1010.1
20260503175839 15 227 32.2 56.3 0.00 0.00 0.00 50 1010.3
20260503175339 15 233 38.6 56.3 0.00 0.00 0.00 51 1010.2
20260503174839 15 222 32.2 56.3 0.00 0.00 0.00 49 1010.1
20260503174339 15 227 33.8 53.1 0.00 0.00 0.00 50 1010.3
20260503173839 15 243 27.4 54.7 0.00 0.00 0.00 49 1010.3
20260503173339 15 210 35.4 54.7 0.00 0.00 0.00 50 1010.3
20260503172839 15 207 37.0 51.5 0.00 0.00 0.00 49 1010.4
20260503172339 15 226 38.6 49.9 0.00 0.00 0.00 49 1010.6
20260503171839 15 239 32.2 46.7 0.00 0.00 0.00 50 1010.6
20260503171339 15 231 32.2 46.7 0.00 0.00 0.00 51 1010.7
20260503170456 15 233 27.4 41.8 0.00 0.00 0.00 53 1010.5
20260503150809 13 214 22.5 48.3 0.00 0.00 0.00 50 1011.3
20260503150309 13 222 30.6 48.3 0.00 0.00 0.00 48 1011.3
20260503140309 11 206 25.7 40.2 0.00 0.00 0.00 51 1011.9
20260503131141 11 217 19.3 33.8 0.00 0.00 0.00 55 1012.1
20260503130641 11 212 22.5 33.8 0.00 0.00 0.00 55 1012.1
20260503130141 10 215 24.1 33.8 0.00 0.00 0.00 55 1012.1
20260503120141 7 155 8.0 12.9 0.00 0.00 0.00 67 1012.0
20260503110641 6 172 9.7 14.5 0.00 0.00 0.00 67 1011.9
20260503110141 6 164 9.7 14.5 0.00 0.00 0.00 67 1011.8
20260503100141 6 191 8.0 12.9 0.00 0.00 0.00 67 1011.9
20260503090456 5 166 6.4 9.7 0.00 0.00 0.00 65 1012.2
20260503081456 5 151 6.4 11.3 0.00 0.00 0.00 63 1012.3
20260503080956 5 149 4.8 9.7 0.00 0.00 0.00 63 1012.4
20260503080456 5 147 4.8 9.7 0.00 0.00 0.00 62 1012.3
20260503072456 5 158 9.7 16.1 0.00 0.00 0.00 60 1012.7
20260503071956 5 155 9.7 16.1 0.00 0.00 0.00 61 1012.7
20260503071456 5 153 9.7 16.1 0.00 0.00 0.00 61 1012.7
20260503070956 5 155 8.0 14.5 0.00 0.00 0.00 61 1012.8
20260503070456 5 151 8.0 14.5 0.00 0.00 0.00 61 1012.8
20260503054956 5 149 4.8 6.4 0.00 0.00 0.00 58 1013.6
20260503054456 5 149 4.8 6.4 0.00 0.00 0.00 58 1013.7
20260503053956 5 149 3.2 6.4 0.00 0.00 0.00 58 1013.8
20260503053456 5 149 3.2 9.7 0.00 0.00 0.00 59 1013.9
20260503052956 5 149 4.8 9.7 0.00 0.00 0.00 57 1013.9
20260503052456 5 154 4.8 9.7 0.00 0.00 0.00 58 1013.9
20260503051956 5 155 6.4 9.7 0.00 0.00 0.00 58 1014.0
20260503051456 5 150 6.4 11.3 0.00 0.00 0.00 58 1014.0
20260503050956 5 151 4.8 12.9 0.00 0.00 0.00 58 1014.1
20260503050456 5 145 6.4 12.9 0.00 0.00 0.00 58 1014.1
20260503045956 5 140 4.8 11.3 0.00 0.00 0.00 59 1014.1
20260503045456 4 148 6.4 11.3 0.00 0.00 0.00 62 1014.2
20260503044956 3 161 3.2 6.4 0.00 0.00 0.00 66 1014.2
20260503044457 3 0 0.0 3.2 0.00 0.00 0.00 70 1014.2
20260503043956 3 0 0.0 0.0 0.00 0.00 0.00 69 1014.3
20260503043456 3 0 0.0 0.0 0.00 0.00 0.00 67 1014.4
20260503042956 3 0 0.0 0.0 0.00 0.00 0.00 67 1014.3
20260503042456 4 0 0.0 0.0 0.00 0.00 0.00 67 1014.4
20260503041956 4 0 0.0 0.0 0.00 0.00 0.00 67 1014.4
20260503041456 4 0 0.0 0.0 0.00 0.00 0.00 67 1014.5
20260503040956 4 0 0.0 0.0 0.00 0.00 0.00 66 1014.5
20260503040456 4 0 0.0 0.0 0.00 0.00 0.00 69 1014.5
20260503035956 4 0 0.0 0.0 0.00 0.00 0.00 66 1014.6
20260503035456 4 0 0.0 0.0 0.00 0.00 0.00 69 1014.8
20260503034956 4 0 0.0 0.0 0.00 0.00 0.00 68 1014.7
20260503034456 4 0 0.0 0.0 0.00 0.00 0.00 68 1014.9
20260503033956 4 0 0.0 0.0 0.00 0.00 0.00 67 1014.8
20260503033456 5 0 0.0 1.6 0.00 0.00 0.00 67 1014.9
20260503032956 5 0 0.0 3.2 0.00 0.00 0.00 68 1014.9
20260503032456 5 0 0.0 4.8 0.00 0.00 0.00 67 1014.9
20260503031956 5 192 1.6 4.8 0.00 0.00 0.00 65 1015.0
20260503031302 5 192 1.6 4.8 0.00 0.00 0.00 58 1015.0
20260503030801 5 192 1.6 4.8 0.00 0.00 0.00 61 1015.0
20260503030301 5 192 1.6 4.8 0.00 0.00 0.00 61 1015.2
20260503025801 5 0 0.0 3.2 0.00 0.00 0.00 64 1015.1
20260503025301 5 0 0.0 3.2 0.00 0.00 0.00 60 1015.1
20260503024801 5 0 0.0 3.2 0.00 0.00 0.00 57 1015.2
20260503024301 5 192 1.6 4.8 0.00 0.00 0.00 56 1015.2
20260503023801 5 192 1.6 4.8 0.00 0.00 0.00 55 1015.2
20260503023301 6 192 3.2 4.8 0.00 0.00 0.00 55 1015.3
20260503022801 6 193 3.2 6.4 0.00 0.00 0.00 57 1015.2
20260503022304 6 197 3.2 6.4 0.00 0.00 0.00 55 1015.2
20260503021801 6 222 3.2 4.8 0.00 0.00 0.00 57 1015.2
20260503021301 6 223 3.2 4.8 0.00 0.00 0.00 56 1015.3
20260503020801 6 223 1.6 4.8 0.00 0.00 0.00 57 1015.4
20260503020305 6 223 1.6 4.8 0.00 0.00 0.00 56 1015.4
20260503015801 6 223 1.6 4.8 0.00 0.00 0.00 56 1015.4
20260503015301 6 223 1.6 4.8 0.00 0.00 0.00 56 1015.4
20260503014801 6 223 1.6 4.8 0.00 0.00 0.00 57 1015.3
20260503014301 6 223 1.6 4.8 0.00 0.00 0.00 59 1015.3
20260503013801 6 223 1.6 4.8 0.00 0.00 0.00 58 1015.3
20260503013301 6 223 1.6 4.8 0.00 0.00 0.00 56 1015.2
20260503012801 6 223 1.6 4.8 0.00 0.00 0.00 54 1015.1
20260503012301 6 223 3.2 6.4 0.00 0.00 0.00 54 1015.3
20260503011801 6 223 3.2 6.4 0.00 0.00 0.00 53 1015.3
20260503011301 7 224 1.6 6.4 0.00 0.00 0.00 53 1015.3
20260503010802 7 223 3.2 6.4 0.00 0.00 0.00 54 1015.2
20260503010301 7 223 3.2 9.7 0.00 0.00 0.00 53 1015.2
20260503005801 7 221 4.8 9.7 0.00 0.00 0.00 52 1015.2
20260503005304 7 218 6.4 9.7 0.00 0.00 0.00 51 1015.3
20260503004801 7 228 4.8 8.0 0.00 0.00 0.00 51 1015.3
20260503004241 8 229 6.4 12.9 0.00 0.00 0.00 49 1015.2
20260503003741 8 227 8.0 12.9 0.00 0.00 0.00 47 1015.2
20260503003241 8 227 6.4 11.3 0.00 0.00 0.00 47 1015.3
20260503002741 8 246 3.2 12.9 0.00 0.00 0.00 45 1015.3
20260503002241 8 244 6.4 14.5 0.00 0.00 0.00 44 1015.3
20260503001741 8 243 6.4 14.5 0.00 0.00 0.00 43 1015.3
20260503001241 9 249 8.0 14.5 0.00 0.00 0.00 42 1015.3
20260503000741 9 248 6.4 16.1 0.00 0.00 0.00 41 1015.3
20260503000241 9 273 8.0 16.1 0.00 0.00 0.00 40 1015.2
20260502235741 9 264 6.4 16.1 0.00 0.00 0.00 41 1015.3
20260502235241 9 268 8.0 19.3 0.00 0.00 0.00 40 1015.3
20260502234741 9 273 8.0 20.9 0.00 0.00 0.00 43 1015.3
20260502234241 9 279 14.5 20.9 0.00 0.00 0.00 40 1015.3
20260502233406 10 273 12.9 19.3 0.00 0.00 0.00 40 1015.3
20260502232906 10 278 9.7 16.1 0.00 0.00 0.00 39 1015.3
20260502232406 10 276 11.3 20.9 0.00 0.00 0.00 37 1015.4
20260502231906 10 270 11.3 20.9 0.00 0.00 0.00 38 1015.4
20260502231406 10 272 11.3 19.3 0.00 0.00 0.00 38 1015.4
20260502230906 10 271 12.9 25.7 0.00 0.00 0.00 38 1015.4
20260502230406 10 284 16.1 25.7 0.00 0.00 0.00 37 1015.5
20260502225906 10 284 14.5 22.5 0.00 0.00 0.00 36 1015.5
20260502225406 10 281 16.1 22.5 0.00 0.00 0.00 38 1015.5
20260502224908 10 313 16.1 22.5 0.00 0.00 0.00 37 1015.7
20260502224355 10 274 12.9 20.9 0.00 0.00 0.00 36 1015.7
20260502223855 10 287 14.5 20.9 0.00 0.00 0.00 37 1015.8
20260502223355 10 269 12.9 24.1 0.00 0.00 0.00 37 1015.7
20260502222855 10 329 9.7 24.1 0.00 0.00 0.00 36 1015.7
20260502222355 10 275 14.5 22.5 0.00 0.00 0.00 37 1015.8
20260502221855 10 282 12.9 24.1 0.00 0.00 0.00 37 1015.8
20260502221355 10 314 8.0 27.4 0.00 0.00 0.00 37 1015.8
20260502220855 10 331 16.1 27.4 0.00 0.00 0.00 35 1015.8
20260502220355 10 273 14.5 25.7 0.00 0.00 0.00 36 1015.8
20260502215855 10 275 14.5 29.0 0.00 0.00 0.00 37 1015.8
20260502215355 10 264 12.9 29.0 0.00 0.00 0.00 38 1015.8
20260502214855 10 286 17.7 25.7 0.00 0.00 0.00 38 1015.8
20260502214355 10 271 14.5 27.4 0.00 0.00 0.00 37 1015.9
20260502213855 10 269 14.5 27.4 0.00 0.00 0.00 37 1015.9
20260502213355 9 296 12.9 32.2 0.00 0.00 0.00 37 1016.0
20260502212855 9 297 14.5 32.2 0.00 0.00 0.00 40 1015.9
20260502212355 9 294 19.3 30.6 0.00 0.00 0.00 39 1015.9
20260502211855 9 284 20.9 29.0 0.00 0.00 0.00 39 1015.9
20260502211355 9 265 16.1 29.0 0.00 0.00 0.00 41 1015.9
20260502210855 9 283 20.9 29.0 0.00 0.00 0.00 39 1015.9
20260502210355 9 263 12.9 27.4 0.00 0.00 0.00 39 1016.0
20260502205855 9 278 17.7 30.6 0.00 0.00 0.00 40 1016.1
20260502205355 9 270 14.5 30.6 0.00 0.00 0.00 41 1016.1
20260502204855 9 281 19.3 29.0 0.00 0.00 0.00 41 1016.1
20260502204355 9 293 12.9 30.6 0.00 0.00 0.00 45 1016.1
20260502203855 9 282 16.1 30.6 0.00 0.00 0.00 43 1016.2
20260502203355 9 274 19.3 30.6 0.00 0.00 0.00 43 1016.3
20260502202855 9 279 17.7 25.7 0.00 0.00 0.00 42 1016.3
20260502202355 9 277 12.9 32.2 0.00 0.00 0.00 42 1016.3
20260502201855 9 282 17.7 32.2 0.00 0.00 0.00 41 1016.4
20260502201355 9 270 17.7 30.6 0.00 0.00 0.00 42 1016.4
20260502200855 8 307 12.9 30.6 0.00 0.00 0.00 44 1016.5
20260502200355 8 284 17.7 33.8 0.00 0.00 0.00 44 1016.6
20260502195855 8 263 16.1 33.8 0.00 0.00 0.00 43 1016.6
20260502195318 9 294 19.3 27.4 0.00 0.00 0.00 43 1016.7
20260502194148 8 264 16.1 27.4 0.00 0.00 0.00 46 1016.9
20260502193648 8 260 16.1 25.7 0.00 0.00 0.00 44 1017.0
20260502193148 8 250 17.7 29.0 0.00 0.00 0.00 43 1017.0
20260502192648 8 278 17.7 35.4 0.00 0.00 0.00 43 1017.1
20260502192148 8 289 20.9 35.4 0.00 0.00 0.00 45 1017.0
20260502191648 8 262 19.3 29.0 0.00 0.00 0.00 43 1017.1
20260502191148 8 245 17.7 25.7 0.00 0.00 0.00 45 1017.1
20260502190648 8 268 19.3 29.0 0.00 0.00 0.00 46 1017.2
20260502190148 8 280 20.9 29.0 0.00 0.00 0.00 45 1017.3
20260502185648 8 251 14.5 27.4 0.00 0.00 0.00 44 1017.3
20260502185148 8 285 19.3 27.4 0.00 0.00 0.00 47 1017.3
20260502184648 8 292 16.1 29.0 0.00 0.00 0.00 49 1017.4
20260502184148 8 265 17.7 29.0 0.00 0.00 0.00 48 1017.4
20260502183648 8 288 11.3 37.0 0.00 0.00 0.00 49 1017.4
20260502183148 8 292 14.5 37.0 0.00 0.00 0.00 48 1017.2
20260502182125 8 259 20.9 32.2 0.00 0.00 0.00 47 1017.5
20260502181625 8 240 12.9 24.1 0.00 0.00 0.00 49 1017.4
20260502181125 8 269 16.1 27.4 0.00 0.00 0.00 50 1017.4
20260502180625 8 255 17.7 27.4 0.00 0.00 0.00 47 1017.5